Overview Statistics Trail Chart Weather Telemetry Raw packets
 

This is the latest recevied weather packets stored in our database for station/object N0QWM. If no packets are shown the sender has not sent any weather packets the latest 10 day(s).

<< 42 43 44 45 46 47 48 >>
Time Temp. Humidity Pressure Rain* Wind** Luminosity Snow
1788374154 35° C 53% 1022.6 hPa 0 mm - 487 W/m² -
1788373850 35° C 54% 1022.8 hPa 0 mm - 170 W/m² -
1788373546 35° C 54% 1022.9 hPa 0 mm - 110 W/m² -
1788373243 35° C 52% 1023 hPa 0 mm - 115 W/m² -
1788372938 35.56° C 51% 1023 hPa 0 mm - 131 W/m² -
1788372632 36.11° C 49% 1023.2 hPa 0 mm - 163 W/m² -
1788372327 36.67° C 49% 1023.1 hPa 0 mm - 115 W/m² -
1788372023 36.11° C 49% 1023 hPa 0 mm - 624 W/m² -
1788371722 35° C 51% 1023 hPa 0 mm - 710 W/m² -
1788371418 34.44° C 54% 1023.1 hPa 0 mm - 114 W/m² -
1788371114 34.44° C 54% 1023.3 hPa 0 mm - 104 W/m² -
1788370809 35.56° C 52% 1023.4 hPa 0 mm - 108 W/m² -
1788370504 36.11° C 52% 1023.4 hPa 0 mm - 118 W/m² -
1788370199 36.67° C 50% 1023.3 hPa 0 mm - 159 W/m² -
1788369898 36.11° C 52% 1023.6 hPa 0 mm - 734 W/m² -
1788369593 37.22° C 51% 1023.5 hPa 0 mm - 769 W/m² -
1788369289 36.67° C 48% 1023.5 hPa 0 mm - 707 W/m² -
1788368984 36.11° C 49% 1023.7 hPa 0 mm - 740 W/m² -
1788368679 36.67° C 50% 1023.8 hPa 0 mm - 697 W/m² -
1788368375 36.11° C 51% 1023.9 hPa 0 mm - 610 W/m² -
1788368074 36.11° C 50% 1023.8 hPa 0 mm - 560 W/m² -
1788367774 36.11° C 51% 1024.1 hPa 0 mm - 590 W/m² -
1788367470 36.67° C 50% 1024.1 hPa 0 mm - 552 W/m² -
1788367169 36.67° C 49% 1024 hPa 0 mm - 616 W/m² -
1788366864 36.67° C 52% 1024.2 hPa 0 mm - 639 W/m² -

* Rain latest hour (hover to see other rain measurements)
** Current wind speed in m/s (hover to see current wind gust speed)